Tracking 29892 objects as of 21-Nov-2024
HD Live streaming from Space Station
objects crossing your sky now

CZ-6A DEB

Track CZ-6A DEB now!
10-day predictions


NORAD ID: 56245
Int'l Code: 2022-151ABM
Perigee: 807.9 km
Apogee: 884.1 km
Inclination: 98.8 °
Period: 101.7 minutes
Semi major axis: 7217 km
RCS: Unknown
Launch date: November 11, 2022
Source: People's Republic of China (PRC)
Launch site: Taiyaun Space Center, China (TSC)

Note: This is SATELLITE DEBRIS
Your satellite tracking list
Your tracking list is empty




NASA's NSSDC Master Catalog

Two Line Element Set (TLE):
1 56245U 22151ABM 24322.44990389  .00005623  00000-0  28322-2 0  9997
2 56245  98.8088 321.1658 0052821 155.5954 204.7738 14.16008717 89983
Source of the keplerian elements: AFSPC